Weather History for Kimball, NE

Change the Weather History Date:

Monday, January 7, 2013

  Actual Average (KSNY) Record (KSNY)
Temperature  
Mean Temperature 34 °F 29 °F  
Max Temperature 47 °F 42 °F 67 °F (2006)
Min Temperature 21 °F 16 °F -18 °F (1971)
Degree Days  
Heating Degree Days 31 36  
Since 1 July heating degree days 2799  
Moisture  
Dew Point 11 °F    
Average Humidity 42    
Maximum Humidity 70    
Minimum Humidity 20    
Precipitation  
Precipitation 0.00 in 0.00 in 0.02 in (1973)
Month to date precipitation 0.05  
Year to date precipitation 0.05  
Sea Level Pressure  
Sea Level Pressure 29.89 in    
Wind  
Wind Speed 8 mph (WSW)    
Max Wind Speed 21 mph    
Max Gust Speed 26 mph    
Visibility 10 miles    
Events      
T = Trace of Precipitation, MM = Missing Value Source: NWS Daily Summary

Daily Weather History Graph

Daily Weather History Graph

Search for Another Location

Airport:

Trip Planner

Search our weather history database for the weather conditions in past years. The results will help you decide how hot, cold, wet, or windy it might be!

Date:

Astronomy

Jan. 07, 2013 Rise Set
Actual Time 8:20 AM CST 5:42 PM CST
Civil Twilight 7:49 AM CST 6:13 PM CST
Nautical Twilight 7:14 AM CST 6:47 PM CST
Astronomical Twilight 6:41 AM CST 7:21 PM CST
Moon 3:46 AM CST (1/7) 1:55 PM CST (1/7)
Length of Visible Light 10h 24m
Length of Day
9h 22m
Waning Crescent, 22% of the Moon is Illuminated
Jan 7
Waning Crescent
Jan 11
New
Jan 18
First Quarter
Jan 26
Full
Feb 3
Last Quarter

Hourly Weather History & Observations

Time (CST) Temp. Windchill Dew Point Humidity Pressure Visibility Wind Dir Wind Speed Gust Speed Precip Events Conditions
12:15 AM 21.0 °F 11.4 °F 12.6 °F 70% 29.88 in 10.0 mi West 8.1 mph - N/A   Clear
12:35 AM 24.1 °F 15.2 °F 14.0 °F 65% 29.88 in 10.0 mi WNW 8.1 mph - N/A   Clear
12:55 AM 26.1 °F 18.4 °F 14.4 °F 61% 29.88 in 10.0 mi West 6.9 mph - N/A   Clear
1:15 AM 24.4 °F 14.9 °F 13.3 °F 63% 29.87 in 10.0 mi WNW 9.2 mph - N/A   Clear
1:35 AM 23.9 °F 15.0 °F 13.1 °F 63% 29.87 in 10.0 mi WNW 8.1 mph - N/A   Clear
1:55 AM 26.4 °F 16.6 °F 13.8 °F 59% 29.87 in 10.0 mi West 10.4 mph - N/A   Clear
2:35 AM 32.9 °F 24.1 °F 13.5 °F 45% 29.88 in 10.0 mi WNW 11.5 mph - N/A   Clear
2:55 AM 34.2 °F 24.8 °F 12.2 °F 40% 29.88 in 10.0 mi NW 13.8 mph - N/A   Clear
3:15 AM 35.8 °F 26.1 °F 11.5 °F 37% 29.89 in 10.0 mi NW 16.1 mph - N/A   Clear
3:35 AM 37.9 °F 27.6 °F 9.5 °F 31% 29.89 in 10.0 mi NW 20.7 mph 26.5 mph N/A   Clear
3:55 AM 36.7 °F 26.9 °F 9.9 °F 33% 29.90 in 10.0 mi NW 17.3 mph - N/A   Clear
4:15 AM 37.8 °F 28.6 °F 8.6 °F 30% 29.91 in 10.0 mi NW 16.1 mph 24.2 mph N/A   Clear
4:35 AM 38.3 °F 28.7 °F 8.6 °F 29% 29.91 in 10.0 mi WNW 18.4 mph 23.0 mph N/A   Clear
4:55 AM 37.6 °F 28.4 °F 9.3 °F 31% 29.91 in 10.0 mi WNW 16.1 mph - N/A   Clear
5:15 AM 37.0 °F 28.1 °F 9.0 °F 31% 29.92 in 10.0 mi WNW 15.0 mph - N/A   Clear
5:35 AM 35.8 °F 27.3 °F 8.6 °F 32% 29.92 in 10.0 mi West 12.7 mph - N/A   Clear
5:55 AM 37.0 °F 27.7 °F 8.4 °F 31% 29.91 in 10.0 mi West 16.1 mph - N/A   Clear
6:15 AM 38.1 °F 32.3 °F 7.9 °F 29% 29.92 in 10.0 mi NW 8.1 mph - N/A   Clear
6:35 AM 34.9 °F 30.8 °F 8.8 °F 34% 29.92 in 10.0 mi West 4.6 mph - N/A   Clear
6:55 AM 30.4 °F 23.6 °F 10.4 °F 43% 29.93 in 10.0 mi NW 6.9 mph - N/A   Clear
7:15 AM 29.3 °F - 10.0 °F 45% 29.94 in 10.0 mi Calm Calm - N/A   Clear
7:35 AM 29.8 °F 24.9 °F 9.5 °F 43% 29.94 in 10.0 mi West 4.6 mph - N/A   Clear
7:55 AM 30.0 °F 21.7 °F 9.5 °F 42% 29.93 in 10.0 mi WNW 9.2 mph - N/A   Clear
8:15 AM 32.0 °F 22.5 °F 7.9 °F 36% 29.94 in 10.0 mi NNW 12.7 mph - N/A   Clear
8:35 AM 29.8 °F 20.9 °F 9.3 °F 42% 29.94 in 10.0 mi NNW 10.4 mph - N/A   Clear
8:55 AM 32.0 °F 22.5 °F 8.6 °F 38% 29.92 in 10.0 mi NNW 12.7 mph - N/A   Clear
9:15 AM 34.0 °F 29.8 °F 8.1 °F 34% 29.94 in 10.0 mi WNW 4.6 mph - N/A   Clear
9:35 AM 34.0 °F 31.0 °F 8.4 °F 34% 29.94 in 10.0 mi North 3.5 mph - N/A   Clear
9:55 AM 36.5 °F 31.0 °F 9.7 °F 33% 29.94 in 10.0 mi North 6.9 mph - N/A   Clear
10:15 AM 36.5 °F - 7.7 °F 30% 29.96 in 10.0 mi Calm Calm - N/A   Clear
10:35 AM 36.1 °F - 9.7 °F 33% 29.98 in 10.0 mi Calm Calm - N/A   Clear
10:55 AM 37.4 °F - 8.2 °F 30% 29.98 in 10.0 mi Calm Calm - N/A   Clear
11:35 AM 39.0 °F - 8.2 °F 28% 29.98 in 10.0 mi Calm Calm - N/A   Clear
11:55 AM 40.8 °F 35.6 °F 7.3 °F 25% 29.98 in 10.0 mi NNE 8.1 mph - N/A   Clear
12:35 PM 41.4 °F - 7.5 °F 25% 29.95 in 10.0 mi Calm Calm - N/A   Clear
1:15 PM 43.7 °F - 7.0 °F 22% 29.93 in 10.0 mi Calm Calm - N/A   Clear
1:35 PM 43.9 °F - 7.3 °F 22% 29.92 in 10.0 mi Calm Calm - N/A   Clear
1:55 PM 44.8 °F 43.3 °F 7.5 °F 22% 29.91 in 10.0 mi North 3.5 mph - N/A   Clear
2:15 PM 45.7 °F - 7.9 °F 21% 29.90 in 10.0 mi Calm Calm - N/A   Clear
2:35 PM 45.1 °F - 6.3 °F 20% 29.89 in 10.0 mi Calm Calm - N/A   Clear
2:55 PM 46.2 °F 45.0 °F 7.3 °F 20% 29.89 in 10.0 mi South 3.5 mph - N/A   Clear
3:15 PM 47.1 °F - 8.8 °F 21% 29.87 in 10.0 mi SSE 4.6 mph - N/A   Clear
3:35 PM 45.9 °F 43.6 °F 9.1 °F 22% 29.87 in 10.0 mi South 4.6 mph - N/A   Clear
3:55 PM 42.8 °F 39.3 °F 12.2 °F 29% 29.87 in 10.0 mi South 5.8 mph - N/A   Clear
4:15 PM 40.8 °F 37.8 °F 14.0 °F 34% 29.87 in 10.0 mi SSE 4.6 mph - N/A   Clear
4:35 PM 41.7 °F 39.8 °F 13.1 °F 31% 29.88 in 10.0 mi South 3.5 mph - N/A   Clear
4:55 PM 39.6 °F 35.4 °F 13.1 °F 34% 29.88 in 10.0 mi East 5.8 mph - N/A   Clear
5:15 PM 35.4 °F 30.5 °F 15.6 °F 44% 29.87 in 10.0 mi SE 5.8 mph - N/A   Clear
5:35 PM 33.8 °F 27.0 °F 14.4 °F 45% 29.87 in 10.0 mi South 8.1 mph - N/A   Clear
5:55 PM 31.3 °F 24.7 °F 14.0 °F 49% 29.86 in 10.0 mi SSE 6.9 mph - N/A   Clear
6:15 PM 31.5 °F 24.2 °F 14.0 °F 49% 29.86 in 10.0 mi South 8.1 mph - N/A   Clear
6:35 PM 31.1 °F 23.1 °F 15.4 °F 52% 29.86 in 10.0 mi South 9.2 mph - N/A   Clear
6:55 PM 29.7 °F 20.7 °F 15.1 °F 55% 29.86 in 10.0 mi South 10.4 mph - N/A   Clear
7:15 PM 28.0 °F 18.6 °F 15.3 °F 59% 29.86 in 10.0 mi South 10.4 mph - N/A   Clear
7:35 PM 26.6 °F 16.2 °F 15.4 °F 63% 29.85 in 10.0 mi South 11.5 mph - N/A   Clear
7:55 PM 27.1 °F 18.9 °F 15.6 °F 62% 29.84 in 10.0 mi South 8.1 mph - N/A   Clear
8:15 PM 27.1 °F 20.7 °F 15.3 °F 61% 29.84 in 10.0 mi South 5.8 mph - N/A   Clear
8:35 PM 28.8 °F 22.6 °F 15.1 °F 57% 29.84 in 10.0 mi SW 5.8 mph - N/A   Clear
8:55 PM 28.4 °F 23.3 °F 14.9 °F 57% 29.83 in 10.0 mi SW 4.6 mph - N/A   Clear
9:15 PM 27.7 °F 20.4 °F 15.3 °F 60% 29.83 in 10.0 mi WSW 6.9 mph - N/A   Clear
9:35 PM 27.3 °F 19.1 °F 14.9 °F 60% 29.81 in 10.0 mi SW 8.1 mph - N/A   Clear
9:55 PM 28.0 °F 20.8 °F 14.2 °F 56% 29.81 in 10.0 mi SW 6.9 mph - N/A   Clear
10:15 PM 28.2 °F 19.5 °F 13.3 °F 54% 29.80 in 10.0 mi SW 9.2 mph - N/A   Clear
10:35 PM 27.7 °F 18.8 °F 12.9 °F 54% 29.80 in 10.0 mi SW 9.2 mph - N/A   Clear
10:55 PM 28.2 °F 19.5 °F 12.2 °F 51% 29.80 in 10.0 mi SSW 9.2 mph - N/A   Clear
11:15 PM 26.6 °F 17.5 °F 12.2 °F 55% 29.80 in 10.0 mi SSW 9.2 mph - N/A   Clear
11:35 PM 26.2 °F 17.8 °F 12.6 °F 56% 29.80 in 10.0 mi SW 8.1 mph - N/A   Clear
11:55 PM 24.6 °F 20.3 °F 11.8 °F 58% 29.79 in 10.0 mi SW 3.5 mph - N/A   Clear